Theta_e
300 300 300 300 300 300 300 301 301 301 302 302 303 304 304 305 307 306 310 316 316 317 318 323 325 331 332 333 330 324 326 330 332 332 332 332 332 331 332 332 331 331 331 331 330
299 299 299 299 299 299 299 300 300 300 300 300 301 302 303 305 306 307 313 313 315 316 316 320 325 328 328 328 330 327 327 328 330 331 332 332 332 332 333 332 332 332 332 331 331
298 297 297 298 298 298 298 299 299 299 300 300 300 300 301 302 310 313 315 315 314 314 316 317 322 328 326 327 327 328 328 327 329 330 331 331 332 332 333 334 332 333 332 331 330
298 298 298 298 298 298 298 298 298 299 299 299 300 300 300 301 315 317 313 315 315 314 313 314 315 321 327 327 326 329 328 328 328 329 330 332 332 332 331 332 331 332 332 331 331
298 299 299 299 299 298 298 298 298 299 299 299 300 300 300 307 310 313 314 314 313 314 315 315 315 317 323 327 326 327 329 329 329 330 330 330 331 332 331 331 330 330 331 331 330
300 301 301 301 301 301 300 300 299 299 299 300 300 300 307 309 309 310 312 314 314 315 317 321 317 317 320 323 328 328 326 327 327 328 328 330 329 329 329 329 330 330 331 331 330
302 302 302 302 302 301 301 301 301 301 300 300 300 301 308 307 308 310 311 312 314 315 317 318 322 319 320 322 323 326 329 329 329 328 329 328 330 330 328 328 329 330 330 330 330
302 301 301 301 301 301 301 301 301 302 303 301 301 304 308 305 307 308 309 309 309 311 313 314 317 318 321 321 322 325 326 329 329 329 329 329 331 331 329 328 329 329 330 331 330
301 301 301 301 300 300 300 301 302 306 307 306 303 309 309 309 310 309 309 308 309 310 312 314 315 317 319 322 324 324 328 328 330 329 329 330 331 331 329 329 330 330 330 329 330
302 301 301 301 300 300 300 301 307 308 309 311 311 311 312 311 310 310 310 311 309 310 312 313 315 317 319 321 325 325 327 328 329 329 330 330 331 331 330 330 331 331 328 328 328
302 302 302 301 300 300 302 308 308 310 312 313 314 312 311 309 309 308 308 308 310 312 313 314 317 318 319 320 322 323 325 325 328 328 329 330 330 330 331 329 331 330 329 328 329
301 301 301 300 300 305 309 308 307 307 308 308 308 308 307 307 307 308 308 308 309 311 315 315 318 319 318 319 320 321 323 324 326 326 328 329 330 331 331 331 330 331 331 330 329
301 301 300 300 301 309 308 308 307 306 308 307 307 307 308 308 308 308 308 308 309 311 314 315 317 317 318 318 319 321 322 324 324 325 327 328 329 331 330 330 329 329 328 328 328
300 301 300 302 307 307 308 307 306 306 308 309 308 309 308 309 310 310 310 310 309 309 310 313 315 316 318 319 319 321 321 322 323 325 327 327 330 332 332 332 331 329 329 329 329
300 301 301 307 307 308 307 307 306 306 311 310 311 310 310 311 312 311 311 311 311 311 310 310 313 315 316 319 319 321 320 321 323 324 327 326 328 329 329 330 329 330 328 328 328
300 301 302 308 308 309 307 307 307 310 312 310 310 309 310 310 310 310 312 312 312 313 311 311 310 313 316 317 319 320 320 321 323 325 328 328 328 328 329 328 329 330 328 328 328
301 303 307 308 308 307 307 308 311 311 309 307 306 307 307 308 309 309 309 310 311 313 314 313 311 312 313 316 318 319 323 324 325 326 328 326 328 330 329 328 329 329 328 328 331
301 307 308 308 307 307 307 309 311 309 307 307 307 307 308 309 309 308 308 308 309 312 313 315 318 312 313 315 318 319 323 324 325 325 326 326 328 328 329 329 328 327 327 331 334
303 310 309 308 308 308 308 311 309 307 306 306 307 309 309 309 309 309 308 307 310 313 315 317 317 316 313 315 317 319 320 322 325 325 326 328 328 329 329 329 328 328 328 334 334
306 310 309 309 308 308 310 309 308 307 305 306 306 308 310 309 309 309 310 310 310 312 312 313 313 315 317 314 316 319 320 322 324 327 330 329 329 329 331 330 330 328 332 336 336
309 310 310 307 308 309 310 308 308 306 305 306 306 307 307 309 310 310 310 311 312 310 310 311 312 312 315 317 316 319 320 321 325 326 328 330 329 333 332 329 331 330 329 336 336
309 311 309 308 310 310 309 308 307 308 306 307 307 307 308 308 309 309 310 312 311 311 311 312 314 319 319 319 315 319 319 322 324 327 326 329 329 330 329 331 332 331 334 336 336
310 309 309 308 311 310 308 307 307 308 308 307 309 308 308 308 310 311 311 311 310 310 312 312 316 318 319 319 320 320 320 322 325 328 329 327 329 329 328 330 331 334 336 336 335
310 310 308 307 308 308 307 307 308 307 307 307 308 308 309 310 309 311 310 310 310 309 310 310 314 316 320 321 320 324 320 321 326 326 328 328 328 329 330 332 332 336 336 335 334
309 308 308 308 308 307 307 307 309 307 307 307 308 308 308 308 308 308 309 309 310 310 310 311 316 316 314 314 317 320 322 320 325 325 327 328 326 330 333 332 333 335 335 334 334
307 306 305 306 306 308 308 309 307 307 308 309 308 309 308 308 309 310 308 309 309 311 311 313 315 315 317 314 315 319 321 323 322 324 326 327 326 331 331 329 333 335 334 334 334
307 307 306 307 308 308 309 308 308 308 308 307 308 310 309 309 308 308 308 308 308 309 310 311 316 317 317 316 316 321 323 324 322 326 327 327 329 330 331 332 333 332 333 333 333
Wind_Speed
15 16 16 16 17 17 18 18 17 16 15 15 17 20 24 26 25 22 28 27 13 21 18 9 10 14 18 21 23 23 15 16 22 22 21 26 17 18 12 8 20 18 15 16 20
17 17 17 18 18 18 19 19 19 18 17 16 16 15 17 23 25 32 34 30 25 20 20 19 19 18 23 23 27 22 16 25 22 20 20 24 22 24 21 18 19 18 28 20 17
16 17 19 19 20 21 20 20 20 19 19 18 16 15 13 12 18 21 24 27 26 27 26 20 21 22 26 29 29 29 24 24 27 29 32 29 29 28 26 23 20 31 22 23 19
16 16 17 18 19 20 21 21 22 21 20 20 18 17 13 7 8 3 10 7 21 30 22 23 25 31 27 26 33 28 35 34 35 33 34 28 34 32 33 34 32 30 31 25 19
18 18 19 19 18 18 19 21 21 21 22 22 22 19 17 14 21 17 16 14 6 11 23 29 33 33 30 29 32 30 28 38 40 38 38 39 32 31 35 40 31 36 32 31 29
18 19 21 22 22 22 21 20 19 20 21 23 23 22 15 24 12 16 19 16 16 16 22 24 33 34 32 35 30 36 36 38 39 39 39 32 32 35 38 38 38 33 33 35 32
19 21 23 24 24 24 24 22 21 21 21 21 21 21 22 31 16 16 14 16 17 20 22 21 23 32 36 31 41 41 34 31 31 37 32 36 32 30 37 32 35 36 37 36 37
18 20 20 20 20 21 22 22 23 22 21 19 19 16 20 21 21 21 23 26 26 25 26 23 23 26 33 38 38 33 32 29 30 29 36 30 32 28 37 36 34 34 33 35 27
23 24 25 25 26 27 28 24 15 16 19 17 13 10 17 9 12 17 17 25 23 24 25 25 26 26 22 22 22 27 24 34 34 29 31 30 31 30 37 37 36 35 28 29 33
25 26 27 27 27 29 28 24 16 17 11 8 11 12 24 16 15 7 4 4 14 20 24 27 22 19 18 19 24 25 29 33 30 26 29 31 28 29 34 37 36 26 23 28 36
26 28 29 28 29 28 22 19 16 9 8 21 16 18 28 18 9 13 13 14 14 18 19 27 17 25 41 30 30 27 31 33 29 27 29 25 27 29 23 27 10 35 34 32 34
28 31 32 29 27 14 11 14 18 15 25 25 34 40 37 32 33 29 20 21 18 19 19 20 28 40 22 32 29 31 31 31 28 26 23 23 23 23 22 23 26 23 21 22 26
29 30 29 27 18 10 15 15 17 18 21 41 47 36 32 28 32 27 25 27 22 21 22 24 38 24 30 29 29 32 31 26 30 24 26 22 25 24 24 27 33 30 32 32 35
29 30 24 21 9 15 11 16 18 17 10 12 7 14 19 11 16 21 20 25 23 24 23 24 27 32 30 33 32 28 28 28 26 22 18 19 19 23 19 22 20 26 28 28 28
28 25 15 18 15 13 17 19 16 10 6 6 16 5 9 16 8 8 14 16 18 20 21 33 23 27 32 36 29 35 24 26 26 23 21 24 15 21 17 19 17 18 30 32 32
27 19 14 13 15 14 21 16 13 4 4 10 15 14 14 20 25 15 13 13 14 17 20 29 32 28 31 30 31 26 25 28 25 19 17 24 20 19 17 18 19 19 21 20 17
24 14 13 10 15 17 16 13 5 3 20 7 9 11 12 15 15 14 15 15 14 14 18 23 26 30 27 27 29 31 22 16 16 15 22 18 20 17 19 19 21 17 13 12 5
17 11 9 7 15 13 13 6 5 9 9 18 17 20 18 20 20 18 18 18 15 17 13 16 20 28 29 32 27 30 25 15 26 15 19 23 22 20 21 23 26 7 9 9 16
16 10 9 7 12 10 11 5 5 16 15 19 17 15 16 11 17 16 14 15 10 5 7 10 17 22 30 30 28 28 27 27 22 21 14 16 18 26 20 16 11 8 10 15 16
14 9 8 11 10 9 5 12 9 8 15 16 18 5 15 23 12 9 14 4 10 5 4 5 12 19 25 28 32 30 23 25 17 23 21 20 18 5 15 10 13 10 14 20 20
10 5 2 7 9 8 5 11 21 27 21 17 17 17 17 15 20 15 9 3 5 8 9 11 7 21 26 25 28 23 23 26 18 17 15 14 10 9 11 2 13 12 19 26 24
8 5 4 5 4 4 8 21 24 13 19 16 13 11 10 17 16 19 13 2 1 12 11 12 5 12 24 21 27 28 24 23 18 21 17 14 11 8 4 5 2 13 24 26 26
10 14 1 2 4 8 17 19 23 22 17 18 19 16 21 15 9 19 8 6 9 6 2 5 6 11 12 15 18 20 28 24 22 12 19 17 10 8 10 8 6 10 23 25 27
9 5 7 12 6 9 14 17 17 18 14 17 16 19 16 16 18 9 11 5 7 3 4 3 5 15 9 5 17 16 28 30 25 19 17 18 6 13 11 9 3 20 24 25 26
6 6 10 7 13 11 15 17 19 17 13 22 11 15 19 16 18 17 9 14 7 5 2 1 6 16 19 17 17 28 24 32 25 26 22 19 11 15 15 13 6 15 22 24 26
9 7 13 20 17 13 9 17 17 18 17 17 15 18 16 18 15 20 18 18 13 3 4 8 4 16 12 14 14 27 29 22 28 25 25 20 17 13 19 17 14 14 22 22 23
10 9 7 12 16 12 11 16 19 19 10 23 21 13 18 16 21 29 27 27 20 17 16 12 4 7 7 1 11 19 23 22 30 24 26 10 8 18 18 18 11 11 20 19 21
Wind_Direction
333 331 329 328 328 327 326 326 327 326 323 313 303 293 288 287 281 274 264 256 242 247 236 237 225 221 225 228 229 234 250 251 251 259 272 284 300 283 289 321 281 295 302 302 300
329 329 329 329 328 325 325 324 322 322 322 320 319 314 304 289 286 278 267 262 247 229 232 228 228 219 229 230 229 226 241 238 243 258 274 284 279 279 299 280 250 284 290 272 297
328 325 324 324 324 323 321 319 319 318 319 317 316 316 314 314 302 271 255 258 246 236 237 236 238 226 229 232 230 230 236 247 256 256 257 263 276 285 280 282 302 292 282 297 297
340 334 327 322 320 319 319 319 317 316 314 309 308 308 305 297 255 75 351 262 230 228 226 236 242 237 229 232 233 242 237 244 254 260 269 273 278 282 288 290 289 276 281 281 293
350 345 340 335 330 324 319 316 313 312 309 306 304 303 305 253 245 269 290 310 275 225 228 234 233 232 236 231 238 238 243 247 250 252 257 266 269 278 280 282 285 286 285 285 280
347 343 338 334 332 331 327 322 314 306 302 301 300 301 290 266 270 260 261 250 247 237 236 233 234 234 247 239 237 244 242 248 252 256 263 268 275 278 278 283 284 279 270 267 279
345 342 339 335 333 331 328 323 318 310 301 294 291 290 270 255 259 250 251 251 247 243 244 244 237 232 242 251 250 252 259 259 251 255 259 262 262 259 269 272 278 276 273 277 270
346 342 339 335 332 327 322 318 317 313 304 291 282 278 265 277 261 261 260 259 254 250 247 248 257 271 247 252 261 250 256 258 252 257 255 252 263 263 268 270 268 272 274 272 272
348 344 341 340 337 333 326 319 304 300 302 301 275 225 272 277 259 254 254 252 248 247 246 244 245 256 265 246 246 249 246 249 251 248 265 258 263 261 253 258 259 258 255 272 270
345 341 337 336 336 332 326 325 321 291 284 269 251 241 253 273 258 194 252 270 233 245 248 235 228 236 239 234 225 222 236 241 256 253 250 249 252 259 253 252 255 258 272 263 269
343 338 334 330 333 332 330 355 350 294 228 262 276 224 287 284 251 244 266 265 249 245 240 226 216 221 219 220 239 235 236 246 251 249 247 253 256 265 279 279 230 260 262 254 260
345 339 335 331 330 339 343 324 319 307 298 280 267 262 263 269 268 262 257 254 247 245 228 228 220 225 231 229 235 246 250 253 262 259 260 265 273 267 256 263 275 263 262 283 288
340 337 334 333 334 357 319 320 325 313 293 280 260 258 260 251 246 253 240 240 240 242 236 222 235 227 232 233 234 235 237 247 258 270 272 280 273 270 272 277 276 278 283 273 266
340 342 341 352 348 326 321 330 325 327 292 287 219 231 232 239 260 249 238 229 232 239 250 247 241 240 228 234 230 242 233 245 250 253 258 255 270 254 254 258 259 259 259 259 260
342 345 352 353 348 344 331 324 324 326 267 24 30 54 342 205 248 264 204 222 246 241 230 243 244 234 240 237 226 242 244 248 247 249 258 254 259 266 274 274 275 263 255 251 247
342 343 350 355 321 325 321 320 318 257 257 4 6 345 344 321 305 267 193 233 246 231 248 255 250 256 239 243 249 242 240 246 253 255 249 242 244 264 260 273 275 273 274 289 271
345 348 353 359 330 329 328 326 283 288 316 348 342 328 305 289 289 290 271 241 231 241 249 245 246 253 254 248 234 240 227 235 234 231 244 244 245 263 268 265 274 274 273 292 41
346 342 353 344 325 331 334 312 268 289 281 347 345 336 319 347 308 302 267 268 261 234 260 272 265 227 240 240 230 229 232 220 220 219 245 245 248 256 250 253 250 265 269 137 112
345 335 329 319 332 330 323 287 3 330 346 342 341 356 325 331 311 293 290 269 274 44 272 312 266 269 218 240 235 221 228 237 242 231 255 258 232 231 246 252 244 207 234 123 135
342 311 287 325 323 322 298 283 294 259 331 327 327 244 310 319 327 295 307 18 308 148 205 309 291 289 282 216 244 240 215 227 223 232 231 236 245 203 202 248 199 201 154 146 142
330 252 291 339 330 316 292 315 321 337 320 313 318 319 330 343 316 331 272 30 2 303 299 275 207 275 290 249 217 227 233 217 239 225 238 250 249 188 211 233 152 194 171 141 147
305 282 202 351 297 287 310 325 321 326 322 319 308 296 278 272 304 291 272 37 271 309 300 310 266 263 271 278 217 231 224 229 219 210 237 259 259 91 134 121 47 203 144 138 147
306 299 238 294 350 329 316 324 324 338 340 341 323 329 318 319 315 325 25 215 236 292 353 8 239 261 262 253 247 243 222 233 232 230 213 234 237 158 180 176 185 144 126 138 140
302 310 356 337 314 309 329 310 322 319 339 320 317 293 321 316 294 229 301 262 218 273 59 343 247 261 270 285 343 315 223 230 221 211 228 222 138 156 149 118 172 128 134 146 150
293 350 353 308 326 316 307 298 313 334 334 330 314 323 325 320 312 311 298 289 171 186 42 115 275 278 257 254 292 290 288 228 215 201 221 228 168 153 132 113 125 123 141 144 147
332 342 331 303 309 305 316 312 325 326 329 312 317 315 310 309 312 306 307 305 327 271 292 209 286 294 280 261 275 284 283 264 219 197 221 239 204 145 112 134 135 150 141 153 150
335 319 299 300 307 328 309 319 315 324 306 312 306 321 304 304 303 301 294 289 286 279 269 280 315 316 264 107 294 273 243 244 208 196 215 213 194 132 95 92 69 63 144 155 152